Time,TemperatureF,DewpointF,PressureIn,WindDirection,WindDirectionDegrees,WindSpeedMPH,WindSpeedGustMPH,Humidity,HourlyPrecipIn,Conditions,Clouds,dailyrainin,SoftwareType,DateUTC
2013-11-01 00:00:00,55.5,55.5,29.36,West,276,4.0,10.0,100,0.00,,,1.31,WeatherCatV1.23B14,2013-11-01 04:00:00,
2013-11-01 00:05:00,55.2,55.2,29.36,West,260,4.0,12.0,100,0.00,,,0.00,WeatherCatV1.23B14,2013-11-01 04:05:00,
2013-11-01 00:10:00,54.8,54.8,29.36,WNW,282,3.0,5.0,100,0.00,,,0.01,WeatherCatV1.23B14,2013-11-01 04:10:00,
2013-11-01 00:15:00,54.5,54.5,29.34,West,271,2.0,5.0,100,0.00,,,0.01,WeatherCatV1.23B14,2013-11-01 04:15:00,
2013-11-01 00:20:00,54.2,54.2,29.34,West,265,3.0,4.0,100,0.00,,,0.01,WeatherCatV1.23B14,2013-11-01 04:20:00,
2013-11-01 00:30:00,53.9,53.9,29.34,WNW,301,3.0,8.0,100,0.00,,,0.01,WeatherCatV1.23B14,2013-11-01 04:30:00,
2013-11-01 00:35:00,53.9,53.9,29.34,West,270,4.0,14.0,100,0.00,,,0.01,WeatherCatV1.23B14,2013-11-01 04:35:00,
2013-11-01 00:40:00,53.9,53.9,29.34,West,272,3.0,4.0,100,0.00,,,0.02,WeatherCatV1.23B14,2013-11-01 04:40:00,
2013-11-01 00:45:00,53.8,53.8,29.34,West,276,3.0,11.0,100,0.00,,,0.02,WeatherCatV1.23B14,2013-11-01 04:45:00,
2013-11-01 00:50:00,53.6,53.6,29.34,West,278,6.0,10.0,100,0.00,,,0.02,WeatherCatV1.23B14,2013-11-01 04:50:00,
2013-11-01 01:00:00,52.9,52.9,29.36,WSW,252,2.0,4.0,100,0.00,,,0.02,WeatherCatV1.23B14,2013-11-01 05:00:00,
2013-11-01 01:10:00,52.6,52.6,29.36,West,281,0.0,6.0,100,0.00,,,0.02,WeatherCatV1.23B14,2013-11-01 05:10:00,
2013-11-01 01:15:00,52.6,52.6,29.36,West,272,2.0,4.0,100,0.00,,,0.02,WeatherCatV1.23B14,2013-11-01 05:15:00,
2013-11-01 01:20:00,52.6,52.6,29.36,NW,315,7.0,19.0,100,0.00,,,0.02,WeatherCatV1.23B14,2013-11-01 05:20:00,
2013-11-01 01:30:00,52.3,52.3,29.38,West,266,5.0,7.0,100,0.00,,,0.02,WeatherCatV1.23B14,2013-11-01 05:30:00,
2013-11-01 01:40:00,51.7,51.7,29.38,West,268,7.0,7.0,100,0.00,,,0.02,WeatherCatV1.23B14,2013-11-01 05:40:00,
2013-11-01 01:50:00,51.4,51.4,29.38,WNW,293,4.0,14.0,100,0.00,,,0.02,WeatherCatV1.23B14,2013-11-01 05:50:00,
2013-11-01 02:00:00,51.2,51.2,29.41,West,280,12.0,12.0,100,0.00,,,0.02,WeatherCatV1.23B14,2013-11-01 06:00:00,
2013-11-01 02:10:00,50.8,50.8,29.41,West,278,8.0,18.0,100,0.00,,,0.02,WeatherCatV1.23B14,2013-11-01 06:10:00,
2013-11-01 02:15:00,50.5,50.5,29.42,West,278,4.0,10.0,100,0.00,,,0.02,WeatherCatV1.23B14,2013-11-01 06:15:00,
2013-11-01 02:20:00,50.3,50.3,29.42,SW,221,4.0,14.0,100,0.00,,,0.02,WeatherCatV1.23B14,2013-11-01 06:20:00,
2013-11-01 02:30:00,50.1,50.1,29.43,WSW,248,8.0,14.0,100,0.00,,,0.02,WeatherCatV1.23B14,2013-11-01 06:30:00,
2013-11-01 02:40:00,50.1,50.1,29.43,West,260,9.0,16.0,100,0.00,,,0.02,WeatherCatV1.23B14,2013-11-01 06:40:00,
2013-11-01 02:50:00,49.9,49.6,29.44,WNW,283,6.0,26.0,99,0.00,,,0.02,WeatherCatV1.23B14,2013-11-01 06:50:00,
2013-11-01 03:00:00,49.6,48.5,29.45,West,271,10.0,16.0,96,0.00,,,0.02,WeatherCatV1.23B14,2013-11-01 07:00:00,
2013-11-01 03:05:00,49.5,48.4,29.45,WSW,256,11.0,12.0,96,0.00,,,0.02,WeatherCatV1.23B14,2013-11-01 07:05:00,
2013-11-01 03:10:00,49.3,48.2,29.45,West,273,7.0,9.0,96,0.00,,,0.02,WeatherCatV1.23B14,2013-11-01 07:10:00,
2013-11-01 03:20:00,48.9,47.2,29.46,WNW,285,11.0,15.0,94,0.00,,,0.02,WeatherCatV1.23B14,2013-11-01 07:20:00,
2013-11-01 03:30:00,48.4,46.8,29.46,West,274,8.0,19.0,94,0.00,,,0.02,WeatherCatV1.23B14,2013-11-01 07:30:00,
2013-11-01 03:40:00,48.1,46.7,29.46,West,278,9.0,15.0,95,0.00,,,0.02,WeatherCatV1.23B14,2013-11-01 07:40:00,
2013-11-01 03:50:00,48.1,46.7,29.47,NNW,332,5.0,15.0,95,0.00,,,0.02,WeatherCatV1.23B14,2013-11-01 07:50:00,
2013-11-01 04:00:00,48.1,47.0,29.48,West,281,4.0,13.0,96,0.00,,,0.02,WeatherCatV1.23B14,2013-11-01 08:00:00,
2013-11-01 04:10:00,48.0,46.6,29.48,WNW,293,6.0,7.0,95,0.00,,,0.02,WeatherCatV1.23B14,2013-11-01 08:10:00,
2013-11-01 04:15:00,47.8,46.2,29.48,WNW,293,8.0,9.0,94,0.00,,,0.02,WeatherCatV1.23B14,2013-11-01 08:15:00,
2013-11-01 04:20:00,47.7,46.1,29.48,WNW,285,6.0,10.0,94,0.00,,,0.02,WeatherCatV1.23B14,2013-11-01 08:20:00,
2013-11-01 04:25:00,47.5,45.6,29.48,West,278,7.0,15.0,93,0.00,,,0.02,WeatherCatV1.23B14,2013-11-01 08:25:00,
2013-11-01 04:30:00,47.4,45.2,29.50,West,266,7.0,13.0,92,0.00,,,0.02,WeatherCatV1.23B14,2013-11-01 08:30:00,
2013-11-01 04:35:00,47.2,45.0,29.50,WNW,288,7.0,15.0,92,0.00,,,0.02,WeatherCatV1.23B14,2013-11-01 08:35:00,
2013-11-01 04:45:00,47.1,44.9,29.51,West,270,7.0,13.0,92,0.00,,,0.02,WeatherCatV1.23B14,2013-11-01 08:45:00,
2013-11-01 04:55:00,46.9,44.7,29.51,West,276,7.0,13.0,92,0.00,,,0.02,WeatherCatV1.23B14,2013-11-01 08:55:00,
2013-11-01 05:00:00,46.9,44.7,29.51,WNW,288,5.0,11.0,92,0.00,,,0.02,WeatherCatV1.23B14,2013-11-01 09:00:00,
2013-11-01 05:10:00,46.2,43.7,29.51,WNW,285,5.0,14.0,91,0.00,,,0.02,WeatherCatV1.23B14,2013-11-01 09:10:00,
2013-11-01 05:20:00,45.8,43.6,29.51,West,274,4.0,22.0,92,0.00,,,0.02,WeatherCatV1.23B14,2013-11-01 09:20:00,
2013-11-01 05:30:00,45.5,43.9,29.52,WSW,253,3.0,12.0,94,0.00,,,0.02,WeatherCatV1.23B14,2013-11-01 09:30:00,
2013-11-01 05:40:00,45.8,44.2,29.52,NW,304,9.0,14.0,94,0.00,,,0.02,WeatherCatV1.23B14,2013-11-01 09:40:00,
2013-11-01 05:50:00,45.8,43.9,29.53,WNW,288,5.0,12.0,93,0.00,,,0.02,WeatherCatV1.23B14,2013-11-01 09:50:00,
2013-11-01 06:00:00,45.9,44.0,29.54,West,274,14.0,17.0,93,0.00,,,0.02,WeatherCatV1.23B14,2013-11-01 10:00:00,
2013-11-01 06:10:00,46.1,44.2,29.54,West,275,6.0,15.0,93,0.00,,,0.02,WeatherCatV1.23B14,2013-11-01 10:10:00,
2013-11-01 06:20:00,46.1,44.2,29.55,WNW,295,2.0,9.0,93,0.00,,,0.02,WeatherCatV1.23B14,2013-11-01 10:20:00,
2013-11-01 06:30:00,46.1,44.2,29.55,WNW,284,3.0,5.0,93,0.00,,,0.02,WeatherCatV1.23B14,2013-11-01 10:30:00,
2013-11-01 06:40:00,46.1,44.5,29.55,West,269,1.0,4.0,94,0.00,,,0.02,WeatherCatV1.23B14,2013-11-01 10:40:00,
2013-11-01 06:45:00,46.2,44.6,29.56,West,276,2.0,11.0,94,0.00,,,0.02,WeatherCatV1.23B14,2013-11-01 10:45:00,
2013-11-01 06:50:00,46.2,44.8,29.56,WNW,285,5.0,9.0,95,0.00,,,0.02,WeatherCatV1.23B14,2013-11-01 10:50:00,
2013-11-01 07:00:00,46.2,44.8,29.56,NW,324,3.0,5.0,95,0.00,,,0.02,WeatherCatV1.23B14,2013-11-01 11:00:00,
2013-11-01 07:10:00,46.2,44.8,29.56,West,263,1.0,10.0,95,0.00,,,0.02,WeatherCatV1.23B14,2013-11-01 11:10:00,
2013-11-01 07:20:00,46.4,45.0,29.57,SW,214,5.0,8.0,95,0.00,,,0.02,WeatherCatV1.23B14,2013-11-01 11:20:00,
2013-11-01 07:25:00,46.4,45.3,29.57,West,265,2.0,5.0,96,0.00,,,0.02,WeatherCatV1.23B14,2013-11-01 11:25:00,
2013-11-01 07:30:00,46.5,45.4,29.58,West,262,1.0,12.0,96,0.00,,,0.02,WeatherCatV1.23B14,2013-11-01 11:30:00,
2013-11-01 07:35:00,46.5,45.4,29.58,WNW,287,5.0,5.0,96,0.00,,,0.02,WeatherCatV1.23B14,2013-11-01 11:35:00,
2013-11-01 07:40:00,46.5,45.4,29.58,West,278,5.0,6.0,96,0.00,,,0.02,WeatherCatV1.23B14,2013-11-01 11:40:00,
2013-11-01 07:45:00,46.7,45.6,29.58,WNW,285,6.0,9.0,96,0.00,,,0.02,WeatherCatV1.23B14,2013-11-01 11:45:00,
2013-11-01 07:50:00,46.7,45.6,29.58,WNW,288,4.0,6.0,96,0.00,,,0.02,WeatherCatV1.23B14,2013-11-01 11:50:00,
2013-11-01 07:55:00,46.7,45.6,29.58,WSW,243,3.0,5.0,96,0.00,,,0.02,WeatherCatV1.23B14,2013-11-01 11:55:00,
2013-11-01 08:00:00,46.8,45.7,29.59,West,259,10.0,13.0,96,0.00,,,0.02,WeatherCatV1.23B14,2013-11-01 12:00:00,
2013-11-01 08:05:00,46.8,45.7,29.59,West,276,14.0,14.0,96,0.00,,,0.02,WeatherCatV1.23B14,2013-11-01 12:05:00,
2013-11-01 08:10:00,46.8,45.7,29.59,West,270,0.0,9.0,96,0.00,,,0.02,WeatherCatV1.23B14,2013-11-01 12:10:00,
2013-11-01 08:20:00,46.9,45.8,29.59,West,266,4.0,7.0,96,0.00,,,0.02,WeatherCatV1.23B14,2013-11-01 12:20:00,
2013-11-01 08:25:00,46.9,45.8,29.59,WNW,284,3.0,7.0,96,0.00,,,0.02,WeatherCatV1.23B14,2013-11-01 12:25:00,
2013-11-01 08:30:00,46.9,46.1,29.60,West,272,1.0,13.0,97,0.00,,,0.02,WeatherCatV1.23B14,2013-11-01 12:30:00,
2013-11-01 08:35:00,46.9,46.1,29.60,West,269,5.0,6.0,97,0.00,,,0.02,WeatherCatV1.23B14,2013-11-01 12:35:00,
2013-11-01 08:40:00,46.9,46.1,29.60,WNW,285,3.0,13.0,97,0.00,,,0.02,WeatherCatV1.23B14,2013-11-01 12:40:00,
2013-11-01 08:50:00,47.1,46.6,29.60,West,268,14.0,14.0,98,0.00,,,0.02,WeatherCatV1.23B14,2013-11-01 12:50:00,
2013-11-01 08:55:00,47.1,46.6,29.60,West,267,3.0,9.0,98,0.00,,,0.02,WeatherCatV1.23B14,2013-11-01 12:55:00,
2013-11-01 09:00:00,47.1,46.6,29.60,West,261,5.0,9.0,98,0.00,,,0.02,WeatherCatV1.23B14,2013-11-01 13:00:00,
2013-11-01 09:05:00,47.2,46.7,29.60,WNW,290,9.0,14.0,98,0.00,,,0.02,WeatherCatV1.23B14,2013-11-01 13:05:00,
2013-11-01 09:15:00,47.4,46.9,29.61,NW,313,4.0,9.0,98,0.00,,,0.02,WeatherCatV1.23B14,2013-11-01 13:15:00,
2013-11-01 09:20:00,47.4,46.9,29.61,WSW,245,3.0,5.0,98,0.00,,,0.02,WeatherCatV1.23B14,2013-11-01 13:20:00,
2013-11-01 09:25:00,47.5,46.7,29.61,West,266,0.0,7.0,97,0.00,,,0.02,WeatherCatV1.23B14,2013-11-01 13:25:00,
2013-11-01 09:30:00,47.7,47.2,29.61,WNW,284,4.0,7.0,98,0.00,,,0.02,WeatherCatV1.23B14,2013-11-01 13:30:00,
2013-11-01 09:35:00,47.8,47.3,29.61,West,278,2.0,5.0,98,0.00,,,0.02,WeatherCatV1.23B14,2013-11-01 13:35:00,
2013-11-01 09:40:00,48.0,47.2,29.61,SW,216,3.0,3.0,97,0.00,,,0.02,WeatherCatV1.23B14,2013-11-01 13:40:00,
2013-11-01 09:45:00,48.3,47.5,29.60,WSW,248,1.0,6.0,97,0.00,,,0.02,WeatherCatV1.23B14,2013-11-01 13:45:00,
2013-11-01 09:55:00,48.7,47.6,29.60,West,264,2.0,8.0,96,0.00,,,0.02,WeatherCatV1.23B14,2013-11-01 13:55:00,
2013-11-01 10:00:00,48.9,47.5,29.61,West,277,4.0,7.0,95,0.00,,,0.02,WeatherCatV1.23B14,2013-11-01 14:00:00,
2013-11-01 10:05:00,48.9,47.2,29.61,WSW,246,3.0,10.0,94,0.00,,,0.02,WeatherCatV1.23B14,2013-11-01 14:05:00,
2013-11-01 10:10:00,49.3,47.7,29.61,WNW,285,0.0,3.0,94,0.00,,,0.02,WeatherCatV1.23B14,2013-11-01 14:10:00,
2013-11-01 10:20:00,49.8,47.6,29.61,SSW,212,0.0,9.0,92,0.00,,,0.02,WeatherCatV1.23B14,2013-11-01 14:20:00,
2013-11-01 10:25:00,49.9,47.1,29.61,West,269,6.0,10.0,90,0.00,,,0.02,WeatherCatV1.23B14,2013-11-01 14:25:00,
2013-11-01 10:30:00,50.1,47.3,29.61,West,259,1.0,5.0,90,0.00,,,0.02,WeatherCatV1.23B14,2013-11-01 14:30:00,
2013-11-01 10:35:00,50.1,47.0,29.61,West,278,5.0,13.0,89,0.00,,,0.02,WeatherCatV1.23B14,2013-11-01 14:35:00,
2013-11-01 10:40:00,50.1,47.3,29.61,West,260,4.0,7.0,90,0.00,,,0.02,WeatherCatV1.23B14,2013-11-01 14:40:00,
2013-11-01 10:50:00,50.1,46.7,29.61,West,278,2.0,15.0,88,0.00,,,0.02,WeatherCatV1.23B14,2013-11-01 14:50:00,
2013-11-01 10:55:00,50.1,47.0,29.61,WNW,287,2.0,9.0,89,0.00,,,0.02,WeatherCatV1.23B14,2013-11-01 14:55:00,
2013-11-01 11:00:00,50.3,46.9,29.62,WSW,254,4.0,6.0,88,0.00,,,0.02,WeatherCatV1.23B14,2013-11-01 15:00:00,
2013-11-01 11:05:00,50.9,47.2,29.62,West,259,1.0,4.0,87,0.00,,,0.02,WeatherCatV1.23B14,2013-11-01 15:05:00,
2013-11-01 11:10:00,50.9,46.9,29.62,West,264,3.0,6.0,86,0.00,,,0.02,WeatherCatV1.23B14,2013-11-01 15:10:00,
2013-11-01 11:15:00,52.6,47.9,29.62,WNW,290,4.0,10.0,84,0.00,,,0.02,WeatherCatV1.23B14,2013-11-01 15:15:00,
2013-11-01 11:20:00,52.7,46.7,29.62,West,266,6.0,13.0,80,0.00,,,0.02,WeatherCatV1.23B14,2013-11-01 15:20:00,
2013-11-01 11:25:00,52.3,47.0,29.62,WSW,252,6.0,10.0,82,0.00,,,0.02,WeatherCatV1.23B14,2013-11-01 15:25:00,
2013-11-01 11:30:00,51.8,46.5,29.62,WNW,296,4.0,5.0,82,0.00,,,0.02,WeatherCatV1.23B14,2013-11-01 15:30:00,
2013-11-01 11:35:00,51.5,46.5,29.62,West,278,5.0,15.0,83,0.00,,,0.02,WeatherCatV1.23B14,2013-11-01 15:35:00,
2013-11-01 11:45:00,51.5,47.1,29.62,SW,236,2.0,11.0,85,0.00,,,0.02,WeatherCatV1.23B14,2013-11-01 15:45:00,
2013-11-01 11:55:00,51.4,45.4,29.62,West,262,1.0,12.0,80,0.00,,,0.02,WeatherCatV1.23B14,2013-11-01 15:55:00,
2013-11-01 12:05:00,51.4,46.1,29.62,West,281,3.0,10.0,82,0.00,,,0.02,WeatherCatV1.23B14,2013-11-01 16:05:00,
2013-11-01 12:15:00,51.4,46.1,29.64,West,271,5.0,10.0,82,0.00,,,0.02,WeatherCatV1.23B14,2013-11-01 16:15:00,
2013-11-01 12:25:00,51.5,46.5,29.64,North,1,4.0,7.0,83,0.00,,,0.02,WeatherCatV1.23B14,2013-11-01 16:25:00,
2013-11-01 12:35:00,51.5,45.5,29.64,West,261,7.0,7.0,80,0.00,,,0.02,WeatherCatV1.23B14,2013-11-01 16:35:00,
2013-11-01 12:45:00,51.5,45.9,29.64,West,261,4.0,7.0,81,0.00,,,0.02,WeatherCatV1.23B14,2013-11-01 16:45:00,
2013-11-01 12:55:00,51.1,45.8,29.64,WSW,255,3.0,14.0,82,0.00,,,0.02,WeatherCatV1.23B14,2013-11-01 16:55:00,
2013-11-01 13:00:00,50.9,45.6,29.64,West,270,0.0,7.0,82,0.00,,,0.02,WeatherCatV1.23B14,2013-11-01 17:00:00,
2013-11-01 13:05:00,50.9,46.2,29.64,WSW,238,2.0,6.0,84,0.00,,,0.02,WeatherCatV1.23B14,2013-11-01 17:05:00,
2013-11-01 13:15:00,51.1,46.1,29.64,WSW,254,2.0,6.0,83,0.00,,,0.02,WeatherCatV1.23B14,2013-11-01 17:15:00,
2013-11-01 13:25:00,51.7,46.1,29.64,SW,225,6.0,9.0,81,0.00,,,0.02,WeatherCatV1.23B14,2013-11-01 17:25:00,
2013-11-01 13:30:00,51.8,45.8,29.64,WSW,237,1.0,3.0,80,0.00,,,0.02,WeatherCatV1.23B14,2013-11-01 17:30:00,
2013-11-01 13:35:00,51.8,45.8,29.64,West,275,4.0,6.0,80,0.00,,,0.02,WeatherCatV1.23B14,2013-11-01 17:35:00,
2013-11-01 13:45:00,51.8,45.2,29.64,West,268,3.0,14.0,78,0.00,,,0.02,WeatherCatV1.23B14,2013-11-01 17:45:00,
2013-11-01 13:55:00,51.7,45.7,29.64,West,278,0.0,4.0,80,0.00,,,0.02,WeatherCatV1.23B14,2013-11-01 17:55:00,
2013-11-01 14:05:00,51.7,46.4,29.64,WNW,283,0.0,2.0,82,0.00,,,0.02,WeatherCatV1.23B14,2013-11-01 18:05:00,
2013-11-01 14:15:00,51.8,46.5,29.64,West,260,0.0,3.0,82,0.00,,,0.02,WeatherCatV1.23B14,2013-11-01 18:15:00,
2013-11-01 14:25:00,52.1,46.8,29.64,West,266,0.0,10.0,82,0.00,,,0.02,WeatherCatV1.23B14,2013-11-01 18:25:00,
2013-11-01 14:35:00,52.3,46.3,29.64,West,267,2.0,9.0,80,0.00,,,0.02,WeatherCatV1.23B14,2013-11-01 18:35:00,
2013-11-01 14:45:00,52.4,46.1,29.64,SW,231,4.0,11.0,79,0.00,,,0.02,WeatherCatV1.23B14,2013-11-01 18:45:00,
2013-11-01 14:55:00,52.4,46.4,29.64,West,267,2.0,7.0,80,0.00,,,0.02,WeatherCatV1.23B14,2013-11-01 18:55:00,
2013-11-01 15:05:00,52.1,46.1,29.64,WNW,300,4.0,9.0,80,0.00,,,0.02,WeatherCatV1.23B14,2013-11-01 19:05:00,
2013-11-01 15:15:00,51.5,45.2,29.64,West,270,3.0,6.0,79,0.00,,,0.02,WeatherCatV1.23B14,2013-11-01 19:15:00,
2013-11-01 15:20:00,51.2,45.2,29.64,West,274,3.0,5.0,80,0.00,,,0.02,WeatherCatV1.23B14,2013-11-01 19:20:00,
2013-11-01 15:25:00,51.1,45.5,29.64,West,267,2.0,5.0,81,0.00,,,0.02,WeatherCatV1.23B14,2013-11-01 19:25:00,
2013-11-01 15:35:00,50.6,45.9,29.64,NW,315,2.0,2.0,84,0.00,,,0.02,WeatherCatV1.23B14,2013-11-01 19:35:00,
2013-11-01 15:45:00,50.2,45.9,29.65,NW,311,4.0,4.0,85,0.00,,,0.02,WeatherCatV1.23B14,2013-11-01 19:45:00,
2013-11-01 15:55:00,49.9,45.9,29.65,NW,311,2.0,4.0,86,0.00,,,0.02,WeatherCatV1.23B14,2013-11-01 19:55:00,
2013-11-01 16:05:00,49.6,45.3,29.65,WNW,300,0.0,5.0,85,0.00,,,0.02,WeatherCatV1.23B14,2013-11-01 20:05:00,
2013-11-01 16:15:00,49.5,44.9,29.66,WNW,299,2.0,5.0,84,0.00,,,0.02,WeatherCatV1.23B14,2013-11-01 20:15:00,
2013-11-01 16:20:00,49.6,45.0,29.66,West,276,3.0,4.0,84,0.00,,,0.02,WeatherCatV1.23B14,2013-11-01 20:20:00,
2013-11-01 16:25:00,49.6,44.7,29.66,West,279,3.0,5.0,83,0.00,,,0.02,WeatherCatV1.23B14,2013-11-01 20:25:00,
2013-11-01 16:35:00,49.6,45.0,29.66,WNW,282,0.0,2.0,84,0.00,,,0.02,WeatherCatV1.23B14,2013-11-01 20:35:00,
2013-11-01 16:45:00,49.8,44.5,29.67,WNW,293,5.0,7.0,82,0.00,,,0.02,WeatherCatV1.23B14,2013-11-01 20:45:00,
2013-11-01 16:55:00,49.8,43.9,29.67,West,277,0.0,7.0,80,0.00,,,0.02,WeatherCatV1.23B14,2013-11-01 20:55:00,
2013-11-01 17:05:00,49.8,43.5,29.67,West,266,2.0,5.0,79,0.00,,,0.02,WeatherCatV1.23B14,2013-11-01 21:05:00,
2013-11-01 17:15:00,49.6,43.0,29.68,WSW,257,2.0,4.0,78,0.00,,,0.02,WeatherCatV1.23B14,2013-11-01 21:15:00,
2013-11-01 17:25:00,49.5,42.6,29.68,West,275,2.0,5.0,77,0.00,,,0.02,WeatherCatV1.23B14,2013-11-01 21:25:00,
2013-11-01 17:35:00,49.3,42.7,29.68,West,266,1.0,5.0,78,0.00,,,0.02,WeatherCatV1.23B14,2013-11-01 21:35:00,
2013-11-01 17:45:00,49.2,43.0,29.68,West,260,3.0,7.0,79,0.00,,,0.02,WeatherCatV1.23B14,2013-11-01 21:45:00,
2013-11-01 17:55:00,49.0,42.8,29.68,West,277,3.0,5.0,79,0.00,,,0.02,WeatherCatV1.23B14,2013-11-01 21:55:00,
2013-11-01 18:05:00,48.9,43.3,29.68,West,261,3.0,4.0,81,0.00,,,0.02,WeatherCatV1.23B14,2013-11-01 22:05:00,
2013-11-01 18:15:00,48.7,42.8,29.69,WNW,293,3.0,3.0,80,0.00,,,0.02,WeatherCatV1.23B14,2013-11-01 22:15:00,
2013-11-01 18:20:00,48.7,43.1,29.69,West,266,2.0,4.0,81,0.00,,,0.02,WeatherCatV1.23B14,2013-11-01 22:20:00,
2013-11-01 18:25:00,48.6,42.7,29.69,WSW,253,5.0,5.0,80,0.00,,,0.02,WeatherCatV1.23B14,2013-11-01 22:25:00,
2013-11-01 18:35:00,48.6,43.7,29.69,WSW,253,0.0,1.0,83,0.00,,,0.02,WeatherCatV1.23B14,2013-11-01 22:35:00,
2013-11-01 18:45:00,48.4,43.8,29.69,West,266,0.0,3.0,84,0.00,,,0.02,WeatherCatV1.23B14,2013-11-01 22:45:00,
2013-11-01 18:55:00,48.3,43.1,29.69,West,267,4.0,7.0,82,0.00,,,0.02,WeatherCatV1.23B14,2013-11-01 22:55:00,
2013-11-01 19:05:00,48.3,43.7,29.70,West,266,0.0,3.0,84,0.00,,,0.02,WeatherCatV1.23B14,2013-11-01 23:05:00,
2013-11-01 19:15:00,48.1,43.5,29.70,West,267,0.0,0.0,84,0.00,,,0.02,WeatherCatV1.23B14,2013-11-01 23:15:00,
2013-11-01 19:20:00,48.0,43.7,29.70,West,261,0.0,1.0,85,0.00,,,0.02,WeatherCatV1.23B14,2013-11-01 23:20:00,
2013-11-01 19:25:00,48.0,43.7,29.70,West,261,0.0,0.0,85,0.00,,,0.02,WeatherCatV1.23B14,2013-11-01 23:25:00,
2013-11-01 19:35:00,47.8,43.8,29.71,West,266,0.0,4.0,86,0.00,,,0.02,WeatherCatV1.23B14,2013-11-01 23:35:00,
2013-11-01 19:45:00,48.0,43.7,29.71,West,259,0.0,6.0,85,0.00,,,0.02,WeatherCatV1.23B14,2013-11-01 23:45:00,
2013-11-01 19:55:00,48.1,43.5,29.71,West,262,0.0,5.0,84,0.00,,,0.02,WeatherCatV1.23B14,2013-11-01 23:55:00,
2013-11-01 20:05:00,48.1,43.5,29.72,West,270,0.0,2.0,84,0.00,,,0.02,WeatherCatV1.23B14,2013-11-02 00:05:00,
2013-11-01 20:15:00,48.1,43.8,29.72,WSW,256,0.0,7.0,85,0.00,,,0.02,WeatherCatV1.23B14,2013-11-02 00:15:00,
2013-11-01 20:20:00,48.1,43.8,29.72,WSW,255,1.0,1.0,85,0.00,,,0.02,WeatherCatV1.23B14,2013-11-02 00:20:00,
2013-11-01 20:25:00,48.0,43.7,29.72,WSW,258,0.0,2.0,85,0.00,,,0.02,WeatherCatV1.23B14,2013-11-02 00:25:00,
2013-11-01 20:35:00,47.7,43.4,29.73,West,274,0.0,2.0,85,0.00,,,0.02,WeatherCatV1.23B14,2013-11-02 00:35:00,
2013-11-01 20:45:00,47.5,43.5,29.72,WNW,288,0.0,3.0,86,0.00,,,0.02,WeatherCatV1.23B14,2013-11-02 00:45:00,
2013-11-01 20:55:00,47.2,43.8,29.72,WSW,247,2.0,5.0,88,0.00,,,0.02,WeatherCatV1.23B14,2013-11-02 00:55:00,
2013-11-01 21:05:00,47.1,43.7,29.73,West,268,2.0,2.0,88,0.00,,,0.02,WeatherCatV1.23B14,2013-11-02 01:05:00,
2013-11-01 21:15:00,47.1,44.0,29.73,WSW,256,0.0,4.0,89,0.00,,,0.02,WeatherCatV1.23B14,2013-11-02 01:15:00,
2013-11-01 21:20:00,47.1,44.0,29.73,West,261,0.0,7.0,89,0.00,,,0.02,WeatherCatV1.23B14,2013-11-02 01:20:00,
2013-11-01 21:25:00,47.1,44.3,29.73,West,270,4.0,6.0,90,0.00,,,0.02,WeatherCatV1.23B14,2013-11-02 01:25:00,
2013-11-01 21:35:00,47.2,44.1,29.72,West,276,0.0,2.0,89,0.00,,,0.02,WeatherCatV1.23B14,2013-11-02 01:35:00,
2013-11-01 21:45:00,47.4,44.6,29.72,West,271,0.0,5.0,90,0.00,,,0.02,WeatherCatV1.23B14,2013-11-02 01:45:00,
2013-11-01 21:55:00,47.5,44.4,29.72,West,269,6.0,10.0,89,0.00,,,0.02,WeatherCatV1.23B14,2013-11-02 01:55:00,
2013-11-01 22:05:00,47.7,44.3,29.73,WSW,240,0.0,4.0,88,0.00,,,0.02,WeatherCatV1.23B14,2013-11-02 02:05:00,
2013-11-01 22:15:00,47.8,44.4,29.72,West,268,3.0,10.0,88,0.00,,,0.02,WeatherCatV1.23B14,2013-11-02 02:15:00,
2013-11-01 22:25:00,48.0,44.6,29.72,West,265,5.0,5.0,88,0.00,,,0.02,WeatherCatV1.23B14,2013-11-02 02:25:00,
2013-11-01 22:35:00,48.0,44.9,29.73,WNW,284,2.0,6.0,89,0.00,,,0.02,WeatherCatV1.23B14,2013-11-02 02:35:00,
2013-11-01 22:45:00,48.0,45.2,29.74,West,266,7.0,7.0,90,0.00,,,0.02,WeatherCatV1.23B14,2013-11-02 02:45:00,
2013-11-01 22:55:00,47.7,45.5,29.74,WNW,283,2.0,7.0,92,0.00,,,0.02,WeatherCatV1.23B14,2013-11-02 02:55:00,
2013-11-01 23:05:00,47.5,45.9,29.74,WSW,255,4.0,5.0,94,0.00,,,0.02,WeatherCatV1.23B14,2013-11-02 03:05:00,
2013-11-01 23:15:00,47.2,45.8,29.74,WSW,248,0.0,2.0,95,0.00,,,0.02,WeatherCatV1.23B14,2013-11-02 03:15:00,
2013-11-01 23:25:00,47.1,45.7,29.74,West,262,2.0,9.0,95,0.00,,,0.02,WeatherCatV1.23B14,2013-11-02 03:25:00,
2013-11-01 23:35:00,46.9,45.8,29.74,West,270,0.0,4.0,96,0.00,,,0.02,WeatherCatV1.23B14,2013-11-02 03:35:00,
2013-11-01 23:45:00,46.8,45.4,29.74,West,271,3.0,3.0,95,0.00,,,0.02,WeatherCatV1.23B14,2013-11-02 03:45:00,
2013-11-01 23:55:00,46.7,45.3,29.74,West,280,1.0,4.0,95,0.00,,,0.02,WeatherCatV1.23B14,2013-11-02 03:55:00,